Year,Month,Day,Hour,Minute,Value (Times are PST for temperature in C)
2011,04,08,00,00,2.00
2011,04,08,00,01,2.00
2011,04,08,00,02,2.00
2011,04,08,00,03,2.00
2011,04,08,00,04,1.90
2011,04,08,00,05,1.90
2011,04,08,00,06,1.90
2011,04,08,00,07,1.90
2011,04,08,00,08,1.90
2011,04,08,00,09,1.90
2011,04,08,00,10,1.80
2011,04,08,00,11,1.80
2011,04,08,00,12,1.80
2011,04,08,00,13,1.80
2011,04,08,00,14,1.80
2011,04,08,00,15,1.80
2011,04,08,00,16,1.80
2011,04,08,00,17,1.80
2011,04,08,00,18,1.80
2011,04,08,00,19,1.80
2011,04,08,00,20,1.80
2011,04,08,00,21,1.80
2011,04,08,00,22,1.80
2011,04,08,00,23,1.70
2011,04,08,00,24,1.70
2011,04,08,00,25,1.60
2011,04,08,00,26,1.60
2011,04,08,00,27,1.60
2011,04,08,00,28,1.50
2011,04,08,00,29,1.50
2011,04,08,00,30,1.50
2011,04,08,00,31,1.40
2011,04,08,00,32,1.40
2011,04,08,00,33,1.40
2011,04,08,00,34,1.40
2011,04,08,00,35,1.30
2011,04,08,00,36,1.30
2011,04,08,00,37,1.30
2011,04,08,00,38,1.30
2011,04,08,00,39,1.20
2011,04,08,00,40,1.20
2011,04,08,00,41,1.20
2011,04,08,00,42,1.20
2011,04,08,00,43,1.10
2011,04,08,00,44,1.10
2011,04,08,00,45,1.10
2011,04,08,00,46,1.10
2011,04,08,00,47,1.00
2011,04,08,00,48,1.00
2011,04,08,00,49,1.00
2011,04,08,00,50,1.00
2011,04,08,00,51,1.00
2011,04,08,00,52,1.00
2011,04,08,00,53,1.00
2011,04,08,00,54,0.90
2011,04,08,00,55,0.90
2011,04,08,00,56,0.90
2011,04,08,00,57,0.80
2011,04,08,00,58,0.80
2011,04,08,00,59,0.80
2011,04,08,01,00,0.80
2011,04,08,01,01,0.80
2011,04,08,01,02,0.70
2011,04,08,01,03,0.70
2011,04,08,01,04,0.70
2011,04,08,01,05,0.60
2011,04,08,01,06,0.60
2011,04,08,01,07,0.60
2011,04,08,01,08,0.60
2011,04,08,01,09,0.50
2011,04,08,01,10,0.50
2011,04,08,01,11,0.50
2011,04,08,01,12,0.50
2011,04,08,01,13,0.50
2011,04,08,01,14,0.50
2011,04,08,01,15,0.50
2011,04,08,01,16,0.50
2011,04,08,01,17,0.40
2011,04,08,01,18,0.40
2011,04,08,01,19,0.40
2011,04,08,01,20,0.40
2011,04,08,01,21,0.40
2011,04,08,01,22,0.40
2011,04,08,01,23,0.40
2011,04,08,01,24,0.40
2011,04,08,01,25,0.40
2011,04,08,01,26,0.40
2011,04,08,01,27,0.40
2011,04,08,01,28,0.40
2011,04,08,01,29,0.40
2011,04,08,01,30,0.40
2011,04,08,01,31,0.40
2011,04,08,01,32,0.40
2011,04,08,01,33,0.40
2011,04,08,01,34,0.40
2011,04,08,01,35,0.40
2011,04,08,01,36,0.40
2011,04,08,01,37,0.40
2011,04,08,01,38,0.40
2011,04,08,01,39,0.40
2011,04,08,01,40,0.40
2011,04,08,01,41,0.40
2011,04,08,01,42,0.40
2011,04,08,01,43,0.40
2011,04,08,01,44,0.40
2011,04,08,01,45,0.40
2011,04,08,01,46,0.40
2011,04,08,01,47,0.40
2011,04,08,01,48,0.40
2011,04,08,01,49,0.40
2011,04,08,01,50,0.40
2011,04,08,01,51,0.40
2011,04,08,01,52,0.40
2011,04,08,01,53,0.40
2011,04,08,01,54,0.40
2011,04,08,01,55,0.40
2011,04,08,01,56,0.40
2011,04,08,01,57,0.40
2011,04,08,01,58,0.40
2011,04,08,01,59,0.40
2011,04,08,02,00,0.50
2011,04,08,02,01,0.50
2011,04,08,02,02,0.50
2011,04,08,02,03,0.50
2011,04,08,02,04,0.60
2011,04,08,02,05,0.60
2011,04,08,02,06,0.60
2011,04,08,02,07,0.70
2011,04,08,02,08,0.70
2011,04,08,02,09,0.70
2011,04,08,02,10,0.80
2011,04,08,02,11,0.80
2011,04,08,02,12,0.80
2011,04,08,02,13,0.80
2011,04,08,02,14,0.80
2011,04,08,02,15,0.80
2011,04,08,02,16,0.80
2011,04,08,02,17,0.80
2011,04,08,02,18,0.80
2011,04,08,02,19,0.80
2011,04,08,02,20,0.70
2011,04,08,02,21,0.70
2011,04,08,02,22,0.60
2011,04,08,02,23,0.60
2011,04,08,02,24,0.50
2011,04,08,02,25,0.50
2011,04,08,02,26,0.40
2011,04,08,02,27,0.40
2011,04,08,02,28,0.50
2011,04,08,02,29,0.50
2011,04,08,02,30,0.50
2011,04,08,02,31,0.50
2011,04,08,02,32,0.50
2011,04,08,02,33,0.60
2011,04,08,02,34,0.60
2011,04,08,02,35,0.70
2011,04,08,02,36,0.70
2011,04,08,02,37,0.70
2011,04,08,02,38,0.70
2011,04,08,02,39,0.80
2011,04,08,02,40,0.80
2011,04,08,02,41,0.80
2011,04,08,02,42,0.80
2011,04,08,02,43,0.80
2011,04,08,02,44,0.80
2011,04,08,02,45,0.80
2011,04,08,02,46,0.80
2011,04,08,02,47,0.80
2011,04,08,02,48,0.80
2011,04,08,02,49,0.80
2011,04,08,02,50,0.80
2011,04,08,02,51,0.80
2011,04,08,02,52,0.80
2011,04,08,02,53,0.80
2011,04,08,02,54,0.80
2011,04,08,02,55,0.80
2011,04,08,02,56,0.80
2011,04,08,02,57,0.80
2011,04,08,02,58,0.80
2011,04,08,02,59,0.70
2011,04,08,03,00,0.70
2011,04,08,03,01,0.70
2011,04,08,03,02,0.70
2011,04,08,03,03,0.70
2011,04,08,03,04,0.80
2011,04,08,03,05,0.80
2011,04,08,03,06,0.80
2011,04,08,03,07,0.80
2011,04,08,03,08,0.80
2011,04,08,03,09,0.80
2011,04,08,03,10,0.80
2011,04,08,03,11,0.80
2011,04,08,03,12,0.80
2011,04,08,03,13,0.80
2011,04,08,03,14,0.80
2011,04,08,03,15,0.80
2011,04,08,03,16,0.80
2011,04,08,03,17,0.70
2011,04,08,03,18,0.60
2011,04,08,03,19,0.60
2011,04,08,03,20,0.60
2011,04,08,03,21,0.50
2011,04,08,03,22,0.50
2011,04,08,03,23,0.50
2011,04,08,03,24,0.60
2011,04,08,03,25,0.60
2011,04,08,03,26,0.60
2011,04,08,03,27,0.60
2011,04,08,03,28,0.70
2011,04,08,03,29,0.70
2011,04,08,03,30,0.80
2011,04,08,03,31,0.80
2011,04,08,03,32,0.90
2011,04,08,03,33,0.90
2011,04,08,03,34,0.90
2011,04,08,03,35,0.90
2011,04,08,03,36,0.90
2011,04,08,03,37,0.90
2011,04,08,03,38,0.80
2011,04,08,03,39,0.80
2011,04,08,03,40,0.80
2011,04,08,03,41,0.70
2011,04,08,03,42,0.60
2011,04,08,03,43,0.60
2011,04,08,03,44,0.50
2011,04,08,03,45,0.50
2011,04,08,03,46,0.40
2011,04,08,03,47,0.40
2011,04,08,03,48,0.40
2011,04,08,03,49,0.40
2011,04,08,03,50,0.40
2011,04,08,03,51,0.40
2011,04,08,03,52,0.40
2011,04,08,03,53,0.40
2011,04,08,03,54,0.40
2011,04,08,03,55,0.40
2011,04,08,03,56,0.30
2011,04,08,03,57,0.30
2011,04,08,03,58,0.40
2011,04,08,03,59,0.40
2011,04,08,04,00,0.50
2011,04,08,04,01,0.60
2011,04,08,04,02,0.60
2011,04,08,04,03,0.70
2011,04,08,04,04,0.70
2011,04,08,04,05,0.80
2011,04,08,04,06,0.80
2011,04,08,04,07,0.80
2011,04,08,04,08,0.80
2011,04,08,04,09,0.80
2011,04,08,04,10,0.80
2011,04,08,04,11,0.80
2011,04,08,04,12,0.80
2011,04,08,04,13,0.80
2011,04,08,04,14,0.80
2011,04,08,04,15,0.80
2011,04,08,04,16,0.80
2011,04,08,04,17,0.80
2011,04,08,04,18,0.80
2011,04,08,04,19,0.70
2011,04,08,04,20,0.70
2011,04,08,04,21,0.70
2011,04,08,04,22,0.70
2011,04,08,04,23,0.70
2011,04,08,04,24,0.70
2011,04,08,04,25,0.70
2011,04,08,04,26,0.70
2011,04,08,04,27,0.60
2011,04,08,04,28,0.70
2011,04,08,04,29,0.70
2011,04,08,04,30,0.70
2011,04,08,04,31,0.70
2011,04,08,04,32,0.60
2011,04,08,04,33,0.60
2011,04,08,04,34,0.60
2011,04,08,04,35,0.50
2011,04,08,04,36,0.50
2011,04,08,04,37,0.40
2011,04,08,04,38,0.40
2011,04,08,04,39,0.40
2011,04,08,04,40,0.40
2011,04,08,04,41,0.40
2011,04,08,04,42,0.40
2011,04,08,04,43,0.40
2011,04,08,04,44,0.40
2011,04,08,04,45,0.40
2011,04,08,04,46,0.40
2011,04,08,04,47,0.40
2011,04,08,04,48,0.40
2011,04,08,04,49,0.40
2011,04,08,04,50,0.40
2011,04,08,04,51,0.40
2011,04,08,04,52,0.40
2011,04,08,04,53,0.40
2011,04,08,04,54,0.40
2011,04,08,04,55,0.40
2011,04,08,04,56,0.50
2011,04,08,04,57,0.50
2011,04,08,04,58,0.50
2011,04,08,04,59,0.50
2011,04,08,05,00,0.50
2011,04,08,05,01,0.50
2011,04,08,05,02,0.50
2011,04,08,05,03,0.50
2011,04,08,05,04,0.50
2011,04,08,05,05,0.50
2011,04,08,05,06,0.40
2011,04,08,05,07,0.40
2011,04,08,05,08,0.40
2011,04,08,05,09,0.40
2011,04,08,05,10,0.50
2011,04,08,05,11,0.50
2011,04,08,05,12,0.60
2011,04,08,05,13,0.60
2011,04,08,05,14,0.70
2011,04,08,05,15,0.70
2011,04,08,05,16,0.80
2011,04,08,05,17,0.80
2011,04,08,05,18,0.80
2011,04,08,05,19,0.80
2011,04,08,05,20,0.90
2011,04,08,05,21,0.90
2011,04,08,05,22,0.90
2011,04,08,05,23,1.00
2011,04,08,05,24,1.00
2011,04,08,05,25,1.00
2011,04,08,05,26,1.10
2011,04,08,05,27,1.10
2011,04,08,05,28,1.10
2011,04,08,05,29,1.00
2011,04,08,05,30,1.00
2011,04,08,05,31,1.00
2011,04,08,05,32,1.00
2011,04,08,05,33,0.90
2011,04,08,05,34,0.90
2011,04,08,05,35,0.80
2011,04,08,05,36,0.80
2011,04,08,05,37,0.80
2011,04,08,05,38,0.80
2011,04,08,05,39,0.80
2011,04,08,05,40,0.80
2011,04,08,05,41,0.70
2011,04,08,05,42,0.70
2011,04,08,05,43,0.60
2011,04,08,05,44,0.60
2011,04,08,05,45,0.60
2011,04,08,05,46,0.60
2011,04,08,05,47,0.60
2011,04,08,05,48,0.50
2011,04,08,05,49,0.50
2011,04,08,05,50,0.50
2011,04,08,05,51,0.50
2011,04,08,05,52,0.50
2011,04,08,05,53,0.50
2011,04,08,05,54,0.50
2011,04,08,05,55,0.40
2011,04,08,05,56,0.40
2011,04,08,05,57,0.40
2011,04,08,05,58,0.40
2011,04,08,05,59,0.30
2011,04,08,06,00,0.30
2011,04,08,06,01,0.20
2011,04,08,06,02,0.20
2011,04,08,06,03,0.20
2011,04,08,06,04,0.20
2011,04,08,06,05,0.30
2011,04,08,06,06,0.30
2011,04,08,06,07,0.40
2011,04,08,06,08,0.40
2011,04,08,06,09,0.40
2011,04,08,06,10,0.50
2011,04,08,06,11,0.50
2011,04,08,06,12,0.50
2011,04,08,06,13,0.60
2011,04,08,06,14,0.60
2011,04,08,06,15,0.60
2011,04,08,06,16,0.60
2011,04,08,06,17,0.70
2011,04,08,06,18,0.70
2011,04,08,06,19,0.60
2011,04,08,06,20,0.60
2011,04,08,06,21,0.60
2011,04,08,06,22,0.60
2011,04,08,06,23,0.70
2011,04,08,06,24,0.70
2011,04,08,06,25,0.60
2011,04,08,06,26,0.60
2011,04,08,06,27,0.60
2011,04,08,06,28,0.50
2011,04,08,06,29,0.50
2011,04,08,06,30,0.50
2011,04,08,06,31,0.40
2011,04,08,06,32,0.40
2011,04,08,06,33,0.40
2011,04,08,06,34,0.30
2011,04,08,06,35,0.30
2011,04,08,06,36,0.30
2011,04,08,06,37,0.20
2011,04,08,06,38,0.20
2011,04,08,06,39,0.20
2011,04,08,06,40,0.20
2011,04,08,06,41,0.20
2011,04,08,06,42,0.20
2011,04,08,06,43,0.10
2011,04,08,06,44,0.10
2011,04,08,06,45,0.10
2011,04,08,06,46,0.10
2011,04,08,06,47,0.10
2011,04,08,06,48,0.10
2011,04,08,06,49,0.10
2011,04,08,06,50,0.10
2011,04,08,06,51,0.10
2011,04,08,06,52,0.10
2011,04,08,06,53,0.10
2011,04,08,06,54,0.10
2011,04,08,06,55,0.10
2011,04,08,06,56,0.10
2011,04,08,06,57,0.10
2011,04,08,06,58,0.20
2011,04,08,06,59,0.20
2011,04,08,07,00,0.20
2011,04,08,07,01,0.20
2011,04,08,07,02,0.30
2011,04,08,07,03,0.30
2011,04,08,07,04,0.40
2011,04,08,07,05,0.40
2011,04,08,07,06,0.40
2011,04,08,07,07,0.40
2011,04,08,07,08,0.50
2011,04,08,07,09,0.50
2011,04,08,07,10,0.50
2011,04,08,07,11,0.50
2011,04,08,07,12,0.40
2011,04,08,07,13,0.30
2011,04,08,07,14,0.10
2011,04,08,07,15,0.10
2011,04,08,07,16,0.10
2011,04,08,07,17,0.10
2011,04,08,07,18,0.10
2011,04,08,07,19,0.10
2011,04,08,07,20,0.10
2011,04,08,07,21,0.10
2011,04,08,07,22,0.10
2011,04,08,07,23,0.10
2011,04,08,07,24,0.10
2011,04,08,07,25,0.20
2011,04,08,07,26,0.20
2011,04,08,07,27,0.20
2011,04,08,07,28,0.20
2011,04,08,07,29,0.30
2011,04,08,07,30,0.30
2011,04,08,07,31,0.40
2011,04,08,07,32,0.50
2011,04,08,07,33,0.60
2011,04,08,07,34,0.60
2011,04,08,07,35,0.60
2011,04,08,07,36,0.70
2011,04,08,07,37,0.70
2011,04,08,07,38,0.80
2011,04,08,07,39,0.80
2011,04,08,07,40,0.80
2011,04,08,07,41,0.90
2011,04,08,07,42,0.90
2011,04,08,07,43,1.00
2011,04,08,07,44,1.10
2011,04,08,07,45,1.10
2011,04,08,07,46,1.20
2011,04,08,07,47,1.20
2011,04,08,07,48,1.30
2011,04,08,07,49,1.30
2011,04,08,07,50,1.30
2011,04,08,07,51,1.30
2011,04,08,07,52,1.30
2011,04,08,07,53,1.40
2011,04,08,07,54,1.50
2011,04,08,07,55,1.50
2011,04,08,07,56,1.60
2011,04,08,07,57,1.60
2011,04,08,07,58,1.70
2011,04,08,07,59,1.70
2011,04,08,08,00,1.80
2011,04,08,08,01,1.90
2011,04,08,08,02,1.90
2011,04,08,08,03,2.00
2011,04,08,08,04,2.00
2011,04,08,08,05,2.10
2011,04,08,08,06,2.20
2011,04,08,08,07,2.20
2011,04,08,08,08,2.20
2011,04,08,08,09,2.30
2011,04,08,08,10,2.30
2011,04,08,08,11,2.40
2011,04,08,08,12,2.40
2011,04,08,08,13,2.50
2011,04,08,08,14,2.50
2011,04,08,08,15,2.60
2011,04,08,08,16,2.70
2011,04,08,08,17,2.80
2011,04,08,08,18,2.80
2011,04,08,08,19,2.90
2011,04,08,08,20,2.90
2011,04,08,08,21,3.00
2011,04,08,08,22,3.10
2011,04,08,08,23,3.20
2011,04,08,08,24,3.20
2011,04,08,08,25,3.30
2011,04,08,08,26,3.30
2011,04,08,08,27,3.40
2011,04,08,08,28,3.40
2011,04,08,08,29,3.50
2011,04,08,08,30,3.50
2011,04,08,08,31,3.60
2011,04,08,08,32,3.60
2011,04,08,08,33,3.70
2011,04,08,08,34,3.70
2011,04,08,08,35,3.70
2011,04,08,08,36,3.70
2011,04,08,08,37,3.80
2011,04,08,08,38,3.80
2011,04,08,08,39,3.90
2011,04,08,08,40,4.00
2011,04,08,08,41,4.00
2011,04,08,08,42,4.10
2011,04,08,08,43,4.10
2011,04,08,08,44,4.20
2011,04,08,08,45,4.30
2011,04,08,08,46,4.40
2011,04,08,08,47,4.50
2011,04,08,08,48,4.60
2011,04,08,08,49,4.60
2011,04,08,08,50,4.70
2011,04,08,08,51,4.80
2011,04,08,08,52,4.80
2011,04,08,08,53,4.90
2011,04,08,08,54,5.10
2011,04,08,08,55,5.10
2011,04,08,08,56,5.30
2011,04,08,08,57,5.40
2011,04,08,08,58,5.50
2011,04,08,08,59,5.60
2011,04,08,09,00,5.70
2011,04,08,09,01,5.80
2011,04,08,09,02,5.80
2011,04,08,09,03,5.90
2011,04,08,09,04,6.00
2011,04,08,09,05,6.00
2011,04,08,09,06,6.00
2011,04,08,09,07,6.10
2011,04,08,09,08,6.20
2011,04,08,09,09,6.20
2011,04,08,09,10,6.30
2011,04,08,09,11,6.40
2011,04,08,09,12,6.50
2011,04,08,09,13,6.60
2011,04,08,09,14,6.70
2011,04,08,09,15,6.80
2011,04,08,09,16,6.80
2011,04,08,09,17,7.00
2011,04,08,09,18,7.10
2011,04,08,09,19,7.10
2011,04,08,09,20,7.10
2011,04,08,09,21,7.10
2011,04,08,09,22,7.10
2011,04,08,09,23,7.10
2011,04,08,09,24,7.10
2011,04,08,09,25,7.20
2011,04,08,09,26,7.20
2011,04,08,09,27,7.20
2011,04,08,09,28,7.20
2011,04,08,09,29,7.30
2011,04,08,09,30,7.30
2011,04,08,09,31,7.30
2011,04,08,09,32,7.30
2011,04,08,09,33,7.30
2011,04,08,09,34,7.30
2011,04,08,09,35,7.40
2011,04,08,09,36,7.50
2011,04,08,09,37,7.60
2011,04,08,09,38,7.60
2011,04,08,09,39,7.70
2011,04,08,09,40,7.70
2011,04,08,09,41,7.70
2011,04,08,09,42,7.60
2011,04,08,09,43,7.60
2011,04,08,09,44,7.60
2011,04,08,09,45,7.60
2011,04,08,09,46,7.60
2011,04,08,09,47,7.60
2011,04,08,09,48,7.60
2011,04,08,09,49,7.60
2011,04,08,09,50,7.60
2011,04,08,09,51,7.70
2011,04,08,09,52,7.80
2011,04,08,09,53,7.80
2011,04,08,09,54,7.90
2011,04,08,09,55,7.90
2011,04,08,09,56,7.90
2011,04,08,09,57,7.90
2011,04,08,09,58,7.90
2011,04,08,09,59,7.90
2011,04,08,10,00,7.90
2011,04,08,10,01,8.00
2011,04,08,10,02,8.00
2011,04,08,10,03,8.10
2011,04,08,10,04,8.00
2011,04,08,10,05,7.90
2011,04,08,10,06,7.90
2011,04,08,10,07,7.90
2011,04,08,10,08,7.90
2011,04,08,10,09,7.90
2011,04,08,10,10,8.00
2011,04,08,10,11,8.00
2011,04,08,10,12,8.20
2011,04,08,10,13,8.20
2011,04,08,10,14,8.20
2011,04,08,10,15,8.10
2011,04,08,10,16,8.20
2011,04,08,10,17,8.30
2011,04,08,10,18,8.40
2011,04,08,10,19,8.50
2011,04,08,10,20,8.60
2011,04,08,10,21,8.60
2011,04,08,10,22,8.70
2011,04,08,10,23,8.80
2011,04,08,10,24,8.90
2011,04,08,10,25,8.90
2011,04,08,10,26,8.90
2011,04,08,10,27,8.90
2011,04,08,10,28,8.90
2011,04,08,10,29,8.80
2011,04,08,10,30,8.70
2011,04,08,10,31,8.60
2011,04,08,10,32,8.60
2011,04,08,10,33,8.70
2011,04,08,10,34,8.70
2011,04,08,10,35,8.80
2011,04,08,10,36,8.80
2011,04,08,10,37,8.80
2011,04,08,10,38,8.90
2011,04,08,10,39,9.00
2011,04,08,10,40,9.10
2011,04,08,10,41,9.00
2011,04,08,10,42,9.00
2011,04,08,10,43,8.90
2011,04,08,10,44,8.90
2011,04,08,10,45,9.00
2011,04,08,10,46,9.20
2011,04,08,10,47,9.30
2011,04,08,10,48,9.40
2011,04,08,10,49,9.40
2011,04,08,10,50,9.40
2011,04,08,10,51,9.50
2011,04,08,10,52,9.50
2011,04,08,10,53,9.70
2011,04,08,10,54,9.70
2011,04,08,10,55,9.70
2011,04,08,10,56,9.70
2011,04,08,10,57,9.70
2011,04,08,10,58,9.70
2011,04,08,10,59,9.80
2011,04,08,11,00,9.80
2011,04,08,11,01,9.70
2011,04,08,11,02,9.70
2011,04,08,11,03,9.70
2011,04,08,11,04,9.70
2011,04,08,11,05,9.80
2011,04,08,11,06,9.90
2011,04,08,11,07,9.80
2011,04,08,11,08,9.80
2011,04,08,11,09,9.70
2011,04,08,11,10,9.70
2011,04,08,11,11,9.70
2011,04,08,11,12,9.70
2011,04,08,11,13,9.70
2011,04,08,11,14,9.80
2011,04,08,11,15,9.90
2011,04,08,11,16,10.00
2011,04,08,11,17,10.10
2011,04,08,11,18,10.30
2011,04,08,11,19,10.30
2011,04,08,11,20,10.40
2011,04,08,11,21,10.50
2011,04,08,11,22,10.70
2011,04,08,11,23,10.70
2011,04,08,11,24,10.70
2011,04,08,11,25,10.60
2011,04,08,11,26,10.60
2011,04,08,11,27,10.60
2011,04,08,11,28,10.60
2011,04,08,11,29,10.70
2011,04,08,11,30,10.80
2011,04,08,11,31,10.90
2011,04,08,11,32,11.10
2011,04,08,11,33,11.00
2011,04,08,11,34,10.80
2011,04,08,11,35,10.50
2011,04,08,11,36,10.40
2011,04,08,11,37,10.30
2011,04,08,11,38,10.20
2011,04,08,11,39,10.20
2011,04,08,11,40,10.20
2011,04,08,11,41,10.10
2011,04,08,11,42,10.20
2011,04,08,11,43,10.40
2011,04,08,11,44,10.50
2011,04,08,11,45,10.60
2011,04,08,11,46,10.60
2011,04,08,11,47,10.70
2011,04,08,11,48,10.80
2011,04,08,11,49,11.00
2011,04,08,11,50,11.20
2011,04,08,11,51,11.50
2011,04,08,11,52,11.60
2011,04,08,11,53,11.60
2011,04,08,11,54,11.40
2011,04,08,11,55,11.10
2011,04,08,11,56,10.90
2011,04,08,11,57,10.70
2011,04,08,11,58,10.60
2011,04,08,11,59,10.60
2011,04,08,12,00,10.60
2011,04,08,12,01,10.70
2011,04,08,12,02,10.70
2011,04,08,12,03,10.70
2011,04,08,12,04,10.70
2011,04,08,12,05,10.60
2011,04,08,12,06,10.70
2011,04,08,12,07,10.90
2011,04,08,12,08,11.10
2011,04,08,12,09,11.30
2011,04,08,12,10,11.20
2011,04,08,12,11,11.20
2011,04,08,12,12,11.30
2011,04,08,12,13,11.20
2011,04,08,12,14,11.00
2011,04,08,12,15,11.00
2011,04,08,12,16,11.10
2011,04,08,12,17,11.30
2011,04,08,12,18,11.50
2011,04,08,12,19,11.60
2011,04,08,12,20,11.80
2011,04,08,12,21,11.80
2011,04,08,12,22,11.60
2011,04,08,12,23,11.60
2011,04,08,12,24,11.60
2011,04,08,12,25,11.40
2011,04,08,12,26,11.20
2011,04,08,12,27,11.00
2011,04,08,12,28,10.70
2011,04,08,12,29,10.70
2011,04,08,12,30,10.80
2011,04,08,12,31,10.80
2011,04,08,12,32,10.80
2011,04,08,12,33,10.80
2011,04,08,12,34,10.80
2011,04,08,12,35,10.70
2011,04,08,12,36,10.80
2011,04,08,12,37,10.90
2011,04,08,12,38,10.90
2011,04,08,12,39,11.00
2011,04,08,12,40,11.00
2011,04,08,12,41,11.10
2011,04,08,12,42,11.20
2011,04,08,12,43,11.40
2011,04,08,12,44,11.50
2011,04,08,12,45,11.50
2011,04,08,12,46,11.40
2011,04,08,12,47,11.40
2011,04,08,12,48,11.40
2011,04,08,12,49,11.40
2011,04,08,12,50,11.30
2011,04,08,12,51,11.30
2011,04,08,12,52,11.40
2011,04,08,12,53,11.60
2011,04,08,12,54,11.60
2011,04,08,12,55,11.40
2011,04,08,12,56,11.40
2011,04,08,12,57,11.30
2011,04,08,12,58,11.30
2011,04,08,12,59,11.20
2011,04,08,13,00,11.30
2011,04,08,13,01,11.30
2011,04,08,13,02,11.40
2011,04,08,13,03,11.30
2011,04,08,13,04,11.40
2011,04,08,13,05,11.40
2011,04,08,13,06,11.40
2011,04,08,13,07,11.40
2011,04,08,13,08,11.50
2011,04,08,13,09,11.60
2011,04,08,13,10,11.60
2011,04,08,13,11,11.60
2011,04,08,13,12,11.40
2011,04,08,13,13,11.50
2011,04,08,13,14,11.60
2011,04,08,13,15,11.70
2011,04,08,13,16,11.80
2011,04,08,13,17,11.80
2011,04,08,13,18,11.80
2011,04,08,13,19,11.80
2011,04,08,13,20,11.80
2011,04,08,13,21,11.90
2011,04,08,13,22,11.90
2011,04,08,13,23,11.90
2011,04,08,13,24,11.90
2011,04,08,13,25,11.90
2011,04,08,13,26,12.00
2011,04,08,13,27,12.00
2011,04,08,13,28,12.10
2011,04,08,13,29,12.20
2011,04,08,13,30,12.30
2011,04,08,13,31,12.30
2011,04,08,13,32,12.30
2011,04,08,13,33,12.30
2011,04,08,13,34,12.30
2011,04,08,13,35,12.30
2011,04,08,13,36,12.20
2011,04,08,13,37,12.10
2011,04,08,13,38,11.90
2011,04,08,13,39,11.70
2011,04,08,13,40,11.60
2011,04,08,13,41,11.60
2011,04,08,13,42,11.70
2011,04,08,13,43,11.70
2011,04,08,13,44,11.80
2011,04,08,13,45,11.70
2011,04,08,13,46,11.80
2011,04,08,13,47,11.90
2011,04,08,13,48,12.00
2011,04,08,13,49,12.10
2011,04,08,13,50,12.20
2011,04,08,13,51,12.30
2011,04,08,13,52,12.30
2011,04,08,13,53,12.40
2011,04,08,13,54,12.50
2011,04,08,13,55,12.50
2011,04,08,13,56,12.60
2011,04,08,13,57,12.60
2011,04,08,13,58,12.60
2011,04,08,13,59,12.50
2011,04,08,14,00,12.70
2011,04,08,14,01,12.70
2011,04,08,14,02,12.70
2011,04,08,14,03,12.80
2011,04,08,14,04,12.80
2011,04,08,14,05,12.80
2011,04,08,14,06,12.80
2011,04,08,14,07,12.80
2011,04,08,14,08,12.70
2011,04,08,14,09,12.70
2011,04,08,14,10,12.70
2011,04,08,14,11,12.80
2011,04,08,14,12,12.80
2011,04,08,14,13,12.90
2011,04,08,14,14,12.90
2011,04,08,14,15,12.90
2011,04,08,14,16,12.90
2011,04,08,14,17,12.80
2011,04,08,14,18,12.90
2011,04,08,14,19,12.90
2011,04,08,14,20,12.90
2011,04,08,14,21,12.90
2011,04,08,14,22,12.80
2011,04,08,14,23,12.70
2011,04,08,14,24,12.60
2011,04,08,14,25,12.50
2011,04,08,14,26,12.50
2011,04,08,14,27,12.70
2011,04,08,14,28,12.60
2011,04,08,14,29,12.70
2011,04,08,14,30,12.60
2011,04,08,14,31,12.50
2011,04,08,14,32,12.50
2011,04,08,14,33,12.50
2011,04,08,14,34,12.50
2011,04,08,14,35,12.50
2011,04,08,14,36,12.50
2011,04,08,14,37,12.50
2011,04,08,14,38,12.40
2011,04,08,14,39,12.20
2011,04,08,14,40,12.20
2011,04,08,14,41,12.30
2011,04,08,14,42,12.40
2011,04,08,14,43,12.60
2011,04,08,14,44,12.70
2011,04,08,14,45,12.80
2011,04,08,14,46,12.80
2011,04,08,14,47,12.60
2011,04,08,14,48,12.40
2011,04,08,14,49,12.30
2011,04,08,14,50,12.30
2011,04,08,14,51,12.30
2011,04,08,14,52,12.30
2011,04,08,14,53,12.30
2011,04,08,14,54,12.30
2011,04,08,14,55,12.30
2011,04,08,14,56,12.30
2011,04,08,14,57,12.30
2011,04,08,14,58,12.30
2011,04,08,14,59,12.30
2011,04,08,15,00,12.40
2011,04,08,15,01,12.50
2011,04,08,15,02,12.30
2011,04,08,15,03,12.10
2011,04,08,15,04,12.20
2011,04,08,15,05,12.20
2011,04,08,15,06,12.30
2011,04,08,15,07,12.30
2011,04,08,15,08,12.30
2011,04,08,15,09,12.20
2011,04,08,15,10,12.20
2011,04,08,15,11,12.20
2011,04,08,15,12,12.20
2011,04,08,15,13,12.20
2011,04,08,15,14,12.20
2011,04,08,15,15,12.10
2011,04,08,15,16,12.00
2011,04,08,15,17,12.00
2011,04,08,15,18,12.10
2011,04,08,15,19,12.10
2011,04,08,15,20,12.00
2011,04,08,15,21,12.00
2011,04,08,15,22,12.00
2011,04,08,15,23,12.10
2011,04,08,15,24,12.20
2011,04,08,15,25,12.20
2011,04,08,15,26,12.30
2011,04,08,15,27,12.30
2011,04,08,15,28,12.40
2011,04,08,15,29,12.40
2011,04,08,15,30,12.40
2011,04,08,15,31,12.50
2011,04,08,15,32,12.50
2011,04,08,15,33,12.50
2011,04,08,15,34,12.60
2011,04,08,15,35,12.60
2011,04,08,15,36,12.60
2011,04,08,15,37,12.60
2011,04,08,15,38,12.70
2011,04,08,15,39,12.80
2011,04,08,15,40,12.90
2011,04,08,15,41,12.90
2011,04,08,15,42,12.90
2011,04,08,15,43,12.90
2011,04,08,15,44,12.90
2011,04,08,15,45,12.80
2011,04,08,15,46,12.50
2011,04,08,15,47,12.30
2011,04,08,15,48,12.20
2011,04,08,15,49,12.40
2011,04,08,15,50,12.60
2011,04,08,15,51,12.80
2011,04,08,15,52,12.80
2011,04,08,15,53,12.90
2011,04,08,15,54,13.00
2011,04,08,15,55,13.00
2011,04,08,15,56,12.90
2011,04,08,15,57,12.80
2011,04,08,15,58,12.80
2011,04,08,15,59,12.70
2011,04,08,16,00,12.50
2011,04,08,16,01,12.40
2011,04,08,16,02,12.30
2011,04,08,16,03,12.30
2011,04,08,16,04,12.20
2011,04,08,16,05,12.00
2011,04,08,16,06,11.90
2011,04,08,16,07,11.80
2011,04,08,16,08,11.60
2011,04,08,16,09,11.60
2011,04,08,16,10,11.50
2011,04,08,16,11,11.40
2011,04,08,16,12,11.40
2011,04,08,16,13,11.30
2011,04,08,16,14,11.20
2011,04,08,16,15,11.20
2011,04,08,16,16,11.10
2011,04,08,16,17,11.00
2011,04,08,16,18,10.90
2011,04,08,16,19,10.90
2011,04,08,16,20,10.80
2011,04,08,16,21,10.90
2011,04,08,16,22,10.90
2011,04,08,16,23,10.90
2011,04,08,16,24,10.90
2011,04,08,16,25,10.80
2011,04,08,16,26,10.80
2011,04,08,16,27,10.90
2011,04,08,16,28,10.90
2011,04,08,16,29,11.00
2011,04,08,16,30,11.10
2011,04,08,16,31,10.90
2011,04,08,16,32,10.90
2011,04,08,16,33,10.90
2011,04,08,16,34,10.90
2011,04,08,16,35,10.90
2011,04,08,16,36,10.90
2011,04,08,16,37,11.00
2011,04,08,16,38,11.10
2011,04,08,16,39,11.10
2011,04,08,16,40,11.10
2011,04,08,16,41,11.00
2011,04,08,16,42,10.90
2011,04,08,16,43,10.90
2011,04,08,16,44,10.90
2011,04,08,16,45,10.90
2011,04,08,16,46,10.80
2011,04,08,16,47,10.80
2011,04,08,16,48,10.80
2011,04,08,16,49,10.80
2011,04,08,16,50,10.80
2011,04,08,16,51,10.70
2011,04,08,16,52,10.60
2011,04,08,16,53,10.40
2011,04,08,16,54,10.20
2011,04,08,16,55,10.20
2011,04,08,16,56,10.10
2011,04,08,16,57,10.10
2011,04,08,16,58,10.10
2011,04,08,16,59,10.00
2011,04,08,17,00,9.90
2011,04,08,17,01,9.90
2011,04,08,17,02,9.90
2011,04,08,17,03,9.90
2011,04,08,17,04,9.90
2011,04,08,17,05,10.10
2011,04,08,17,06,10.10
2011,04,08,17,07,10.20
2011,04,08,17,08,10.30
2011,04,08,17,09,10.30
2011,04,08,17,10,10.30
2011,04,08,17,11,10.30
2011,04,08,17,12,10.30
2011,04,08,17,13,10.40
2011,04,08,17,14,10.40
2011,04,08,17,15,10.30
2011,04,08,17,16,10.20
2011,04,08,17,17,10.20
2011,04,08,17,18,10.20
2011,04,08,17,19,10.10
2011,04,08,17,20,10.10
2011,04,08,17,21,10.10
2011,04,08,17,22,10.10
2011,04,08,17,23,10.10
2011,04,08,17,24,10.10
2011,04,08,17,25,10.10
2011,04,08,17,26,10.10
2011,04,08,17,27,10.10
2011,04,08,17,28,10.10
2011,04,08,17,29,10.10
2011,04,08,17,30,10.20
2011,04,08,17,31,10.20
2011,04,08,17,32,10.30
2011,04,08,17,33,10.40
2011,04,08,17,34,10.40
2011,04,08,17,35,10.40
2011,04,08,17,36,10.40
2011,04,08,17,37,10.50
2011,04,08,17,38,10.60
2011,04,08,17,39,10.60
2011,04,08,17,40,10.60
2011,04,08,17,41,10.60
2011,04,08,17,42,10.60
2011,04,08,17,43,10.60
2011,04,08,17,44,10.60
2011,04,08,17,45,10.60
2011,04,08,17,46,10.60
2011,04,08,17,47,10.60
2011,04,08,17,48,10.60
2011,04,08,17,49,10.60